If you wish to contribute or participate in the discussions about articles you are invited to join SKYbrary as a registered user

LTBS

From SKYbrary Wiki

Jump to: navigation, search
Airport
Code LTBS
Name Dalaman
Region Asia and Pacific
Territory Turkey
Location Dalaman
Elevation

6.096000 m20 ft

Coordinates 36° 42' 45" N, 28° 47' 29" E
All Airports
in LT
LTAC, LTAG, LTAI, LTBA, LTBS
Runways
Designator Length Width Surface
1/19 3000 m9,842.52 ft 45 m147.638 ft CON


METAR
Observation LTBS 290150Z 02005KT CAVOK 20/17 Q1008 NOSIG
Station Dalaman
Elevation 2 metres
Date/Time 29 July 2014 01:50:00
Wind direction 20°
Wind speed 05 kts
Clouds clouds and visibility OK
Clouds code CAVOK
Temperature 20°C
Dew point 17°C
Humidity 82%
QNH 1008 hPa
Weather condition n/a


RI
Tag(s) Runway Misidentification

Dalaman Airport

ICAO: LTBS IATA: DLM

Description

International airport serving south-west Turkey, located 3 nm5,556 m
5.556 km
18,228.346 ft
south of the town of Dalaman and with high ground to the north, east, and west.

Climatology

Typical Mediterranean climate with hot dry summers and mild, wet winters (Köppen climate classification Csa).

Maps

Terrain

Loading map...

Airport Layout

Loading map...

Flight Safety Considerations

Accidents & Serious Incidents at or in vicinity of LTBS

None on SKYbrary

Personal tools